INMARSAT 5-F2

Last updated on Dec. 14, 2019, 4:30 a.m. UTC

1 40384U 15005A   19347.39001139 -.00000268  00000-0  00000+0 0  9996
2 40384   0.0170 346.6423 0000365 353.8424 186.7087  1.00271080 17835
UTC
Height (km)
Latitude
Longitude
Inclination
Orbital Period
UTC large
Height (km)
Speed (km/s)
/
Latitude / Longitude
Inclination (degrees)
Orbital Period (minutes)
Azimuth
Elevation
Range (km)
Doppler Factor
iOS Compass Heading
iOS Angle

Next 30 passes for location: Hong Kong

Rise time Rise Azimuth (degrees) Set time Set Azimuth (degrees) Duration Max altitude (degrees)

No matching passes for this satellites